Wooster, OH

8:48 AM EST on December 09, 2019 (GMT -0500)
Wayne County

Weather History for KBJJ - October, 2019

Change the Weather History Date:

Wednesday, October 23, 2019

  Actual Average Record
Temperature  
Mean Temperature 50 °F -  
Max Temperature 60 °F 57 °F 75 °F (2000)
Min Temperature 41 °F 36 °F 25 °F (1997)
Degree Days  
Heating Degree Days 15    
Moisture  
Dew Point 34 °F    
Average Humidity 57    
Maximum Humidity 85    
Minimum Humidity 33    
Precipitation  
Precipitation 0.00 in - - ()
Sea Level Pressure  
Sea Level Pressure 30.04 in    
Wind  
Wind Speed 8 mph (SW)    
Max Wind Speed 16 mph    
Max Gust Speed 26 mph    
Visibility 10 miles    
Events      
Averages and records for this station are not official NWS values.
T = Trace of Precipitation, MM = Missing Value Source: NWS Daily Summary

Daily Weather History Graph

Daily Weather History Graph

Search for Another Location

Airport or City:

Astronomy

Oct. 23, 2019 Rise Set
Actual Time 7:47 AM EDT 6:35 PM EDT
Civil Twilight 7:19 AM EDT 7:03 PM EDT
Nautical Twilight 6:47 AM EDT 7:35 PM EDT
Astronomical Twilight 6:15 AM EDT 8:07 PM EDT
Moon 2:01 AM EDT (10/23) 4:28 PM EDT (10/23)
Length of Visible Light 11h 44m
Length of Day
10h 48m
Waning Crescent, 27% of the Moon is Illuminated
Oct 23
Waning Crescent
Oct 27
New
Nov 4
First Quarter
Nov 12
Full
Nov 19
Last Quarter

Hourly Weather History & Observations

Time (EDT) Temp. Windchill Dew Point Humidity Pressure Visibility Wind Dir Wind Speed Gust Speed Precip Events Conditions
12:56 AM 44.1 °F 40.8 °F 37.9 °F 79% 29.89 in 10.0 mi SW 5.8 mph - N/A   Partly Cloudy
1:56 AM 45.0 °F 41.8 °F 37.9 °F 76% 29.89 in 10.0 mi SW 5.8 mph - N/A   Clear
2:56 AM 44.1 °F 40.1 °F 37.9 °F 79% 29.90 in 10.0 mi SW 6.9 mph - N/A   Partly Cloudy
3:56 AM 44.1 °F 40.8 °F 37.9 °F 79% 29.91 in 10.0 mi SW 5.8 mph - N/A   Clear
4:56 AM 43.0 °F 38.8 °F 37.9 °F 82% 29.93 in 10.0 mi SW 6.9 mph - N/A   Clear
5:56 AM 42.1 °F 37.7 °F 37.9 °F 85% 29.95 in 10.0 mi SW 6.9 mph - N/A   Clear
6:56 AM 42.1 °F 37.7 °F 37.0 °F 82% 29.97 in 10.0 mi WSW 6.9 mph - N/A   Clear
7:56 AM 41.0 °F 36.4 °F 36.0 °F 82% 29.97 in 10.0 mi SW 6.9 mph - N/A   Clear
8:56 AM 43.0 °F 37.7 °F 36.0 °F 76% 30.02 in 10.0 mi WSW 9.2 mph - N/A   Clear
9:56 AM 48.0 °F - 34.0 °F 58% 30.05 in 10.0 mi WSW 13.8 mph 23.0 mph N/A   Clear
10:56 AM 51.1 °F - 30.9 °F 46% 30.06 in 10.0 mi West 12.7 mph 26.5 mph N/A   Clear
11:56 AM 54.0 °F - 28.0 °F 37% 30.08 in 10.0 mi West 15.0 mph 24.2 mph N/A   Clear
12:56 PM 55.9 °F - 28.9 °F 36% 30.08 in 10.0 mi West 12.7 mph 21.9 mph N/A   Clear
1:56 PM 57.0 °F - 30.0 °F 36% 30.08 in 10.0 mi WSW 11.5 mph 24.2 mph N/A   Clear
2:56 PM 57.9 °F - 30.9 °F 36% 30.08 in 10.0 mi WSW 16.1 mph 25.3 mph N/A   Partly Cloudy
3:56 PM 59.0 °F - 30.0 °F 33% 30.08 in 10.0 mi WSW 10.4 mph 19.6 mph N/A   Clear
4:56 PM 59.0 °F - 30.9 °F 35% 30.09 in 10.0 mi SW 10.4 mph 20.7 mph N/A   Partly Cloudy
5:56 PM 57.0 °F - 30.9 °F 37% 30.09 in 10.0 mi SW 11.5 mph - N/A   Clear
6:56 PM 55.0 °F - 30.9 °F 40% 30.10 in 10.0 mi SSW 4.6 mph - N/A   Clear
7:56 PM 51.1 °F - 32.0 °F 48% 30.12 in 10.0 mi South 6.9 mph - N/A   Clear
8:56 PM 50.0 °F - 33.1 °F 52% 30.13 in 10.0 mi South 6.9 mph - N/A   Clear
9:56 PM 50.0 °F - 33.1 °F 52% 30.14 in 10.0 mi SSW 8.1 mph - N/A   Clear
10:56 PM 50.0 °F - 32.0 °F 50% 30.15 in 10.0 mi SSW 8.1 mph - N/A   Clear
11:56 PM 50.0 °F - 32.0 °F 50% 30.14 in 10.0 mi SSW 8.1 mph - N/A   Clear